TimeCST,TemperatureF,Dew PointF,Humidity,Sea Level PressureIn,VisibilityMPH,Wind Direction,Wind SpeedMPH,Gust SpeedMPH,PrecipitationIn,Events,Conditions,WindDirDegrees,DateUTC
12:00 AM,68,60,70,29.84,12,Calm,Calm,,,,Mostly Cloudy,,2013-11-19 06:00:00
12:00 AM,68.0,60.8,78,29.99,-9999.0,Calm,Calm,-,N/A,,Clear,0,2013-11-19 06:00:00
1:00 AM,68.0,59.0,73,29.98,-9999.0,NNE,4.6,-,N/A,,Clear,30,2013-11-19 07:00:00
2:00 AM,66.2,59.0,78,29.95,-9999.0,NE,9.2,-,N/A,,Clear,40,2013-11-19 08:00:00
3:00 AM,65,57,69,29.79,12,ENE,5.8,,,,Mostly Cloudy,70,2013-11-19 09:00:00
3:00 AM,66.2,57.2,73,29.93,-9999.0,ENE,5.8,-,N/A,,Clear,70,2013-11-19 09:00:00
4:00 AM,66.2,59.0,78,29.95,-9999.0,NE,4.6,-,N/A,,Clear,40,2013-11-19 10:00:00
5:00 AM,66.2,57.2,73,29.95,-9999.0,ENE,5.8,-,N/A,,Clear,60,2013-11-19 11:00:00
6:00 AM,68.0,57.2,68,29.97,-9999.0,East,4.6,-,N/A,,Clear,90,2013-11-19 12:00:00
7:00 AM,69.8,57.2,64,29.98,-9999.0,East,6.9,-,N/A,,Clear,80,2013-11-19 13:00:00
8:00 AM,73.4,59.0,61,29.98,-9999.0,East,6.9,-,N/A,,Clear,90,2013-11-19 14:00:00
9:00 AM,77,58,41,29.85,12,ESE,12.7,,,,Clear,110,2013-11-19 15:00:00
9:00 AM,77.0,57.2,50,29.99,-9999.0,ESE,12.7,-,N/A,,Clear,110,2013-11-19 15:00:00
10:00 AM,78.8,59.0,51,29.97,-9999.0,East,10.4,-,N/A,,Clear,100,2013-11-19 16:00:00
11:00 AM,80.6,59.0,48,29.96,6.2,ESE,9.2,-,N/A,,Mostly Cloudy,110,2013-11-19 17:00:00
12:00 PM,82,59,35,29.79,12,ESE,6.9,,,,Overcast,110,2013-11-19 18:00:00
12:00 PM,82.4,59.0,45,29.94,6.2,ESE,6.9,-,N/A,,Mostly Cloudy,110,2013-11-19 18:00:00
1:00 PM,78.8,66.2,65,29.91,6.2,WSW,9.2,-,N/A,,Mostly Cloudy,250,2013-11-19 19:00:00
2:01 PM,80.6,62.6,54,29.90,6.2,WSW,5.8,-,N/A,,Mostly Cloudy,240,2013-11-19 20:01:00
3:00 PM,76,67,68,29.81,12,West,10.4,,,,Mostly Cloudy,260,2013-11-19 21:00:00
3:00 PM,78.8,66.2,65,29.88,6.2,WSW,9.2,-,N/A,,Scattered Clouds,250,2013-11-19 21:00:00
4:00 PM,77.0,68.0,74,29.89,6.2,WSW,6.9,-,N/A,,Scattered Clouds,240,2013-11-19 22:00:00
5:00 PM,71.6,69.8,94,29.92,6.2,WSW,4.6,-,N/A,,Mostly Cloudy,240,2013-11-19 23:00:00
6:00 PM,71,70,96,29.79,5,SW,3.5,,,,Mist,230,2013-11-20 00:00:00
6:00 PM,71.6,69.8,94,29.94,5.0,SW,3.5,-,N/A,Fog,Fog,230,2013-11-20 00:00:00
7:00 PM,69.8,69.8,100,29.97,5.0,WSW,4.6,-,N/A,Fog,Fog,240,2013-11-20 01:00:00
8:00 PM,68.0,68.0,100,29.99,5.0,Calm,Calm,-,N/A,Fog,Fog,0,2013-11-20 02:00:00
9:00 PM,69,68,96,29.87,5,East,2.3,,,Fog,Light Fog,80,2013-11-20 03:00:00
9:00 PM,68.0,68.0,100,30.01,5.0,East,2.3,-,N/A,Fog,Fog,80,2013-11-20 03:00:00
10:00 PM,68.0,68.0,100,30.01,6.2,ESE,6.9,-,N/A,,Scattered Clouds,110,2013-11-20 04:00:00
11:00 PM,66.2,60.8,83,30.01,6.2,ENE,5.8,-,N/A,,Mostly Cloudy,70,2013-11-20 05:00:00